Weather Roundup
Issued by NWS Corpus Christi, TX

Home | Current Version | Previous Version | Text Only | Print | Product List | Glossary On
Versions: 1 2 3 4 5 6 7 8 9 10 11 12 13 14 15 16 17 18 19 20 21 22 23 24 25 26 27 28 29 30 31 32 33 34 35 36 37 38 39 40 41 42 43 44 45 46 47 48 49 50
000
ASUS44 KCRP 251310
HRRCRP

SOUTH TEXAS REGIONAL WEATHER ROUNDUP
NATIONAL WEATHER SERVICE CORPUS CHRISTI TX
800 AM CDT THU MAY 25 2017


TXZ229>244-251400-
...CORPUS CHRISTI AREA OBSERVATIONS...

CITY           SKY/WX    TMP DP  RH WIND       PRES   REMARKS
CORPUS CHRISTI MOSUNNY   66  64  93 CALM      29.81R
NAS CORPUS CHR MOSUNNY   79  67  66 S14G23    29.80S
ROCKPORT       SUNNY     78  63  59 S13G21    29.79S
KINGSVILLE NAS MOSUNNY   70  66  87 S8        29.80R
ALICE          SUNNY     65  60  84 S7        29.80S
ORANGE GROVE   SUNNY     66  62  87 S10       29.81S
FALFURRIAS     SUNNY     68  61  79 SE5       29.80R
$$

...VICTORIA AREA OBSERVATIONS...

CITY           SKY/WX    TMP DP  RH WIND       PRES   REMARKS
VICTORIA       SUNNY     71  63  75 SW8       29.81R
BEEVILLE       FAIR      69  64  84 S9        29.81R
PLEASANTON     SUNNY     65  58  78 CALM      29.81S
SAN ANTONIO    SUNNY     67  54  63 S9        29.82R
$$

...LAREDO AREA OBSERVATIONS...

CITY           SKY/WX    TMP DP  RH WIND       PRES   REMARKS
LAREDO         SUNNY     71  62  73 SE16G22   29.78R
COTULLA        SUNNY     67  53  61 SE6       29.79R
DEL RIO        SUNNY     64  54  69 E9        29.74R
MCALLEN        SUNNY     72  65  78 SE10      29.80R
HEBBRONVILLE   SUNNY     64  58  81 S5        29.81R
$$

...OTHER TEXAS OBSERVATIONS...

CITY           SKY/WX    TMP DP  RH WIND       PRES   REMARKS
BROWNSVILLE    SUNNY     76  68  76 SE6       29.82R
HOUSTON        SUNNY     71  63  75 CALM      29.81R
COL. STATION   SUNNY     67  61  81 S7        29.79R
AUSTIN         SUNNY     68  57  68 S15G24    29.78R
WACO           SUNNY     67  55  65 S13       29.73S
FORT WORTH     SUNNY     66  54  65 SE12      29.70S
WICHITA FALLS  MOSUNNY   61  50  67 SE13      29.64R
LUBBOCK        MOSUNNY   62  43  49 W13       29.65S
EL PASO        PTSUNNY   79  20  11 W13       29.84R
$$

...MARINE OBSERVATIONS...

STATION/POSITION TIME  SKY/WX   TEMP    WIND        PRES    VSBY  WAVE   SWELL
                                AIR SEA DIR/SP/G                  HT/PER HT/PER
                 (UTC)          (F)     (DEG/KT/KT) (MB)    (MI)  (FT/S) (FT/S)
PORT ARANSAS     1300            77 76  170/ 22/ 24 1009.1R
BUOY 90 E PORT A 1150            78 78  160/ 17/ 21 1009.2          4/ 4
BUOY 45 SE BAFFI 1250            77     170/ 17/ 21 1008.8R         4/ 5
BUOY 200 E PT IS 1150            77 80  130/  8/ 12 1010.9          2/ 6   2/ 6
BUOY 15 E GALVES 1150            77 78  210/ 17/ 19 1008.9          3/ 4
$$



USA.gov is the U.S. government's official web portal to all federal, state and local government web resources and services.